Location: Observatoire
(46.1952°N, 5.3391°E)
Time: 21:22:28
(UTC+02:00)

DIWATA 2B (PO-101) - Visible Passes

Search period start: 22 April 2024 00:00
Search period end: 02 May 2024 00:00
Orbit: 576 x 588 km, 98.1° (Epoch: 22 April)

Date Brightness Start Highest point End Pass type
(mag) Time Alt. Az. Time Alt. Az. Time Alt. Az.
22 Apr ? 03:35:43 10° E 03:37:54 14° ENE 03:40:04 10° NNE visible
22 Apr ? 05:08:35 10° S 05:12:43 66° WSW 05:16:52 10° NNW visible
23 Apr ? 03:41:01 10° E 03:43:30 16° ENE 03:46:00 10° NNE visible
23 Apr ? 05:14:19 10° S 05:18:24 57° W 05:22:31 10° NNW visible
24 Apr ? 03:46:21 10° ESE 03:49:07 18° ENE 03:51:54 10° NNE visible
24 Apr ? 05:20:03 10° S 05:24:05 50° W 05:28:09 10° NNW visible
25 Apr ? 03:51:43 10° ESE 03:54:43 20° ENE 03:57:44 10° NNE visible
25 Apr ? 05:25:48 10° S 05:29:46 43° W 05:33:45 10° NNW visible
26 Apr ? 03:57:07 10° ESE 04:00:19 22° ENE 04:03:31 10° NNE visible
26 Apr ? 05:31:33 10° SSW 05:35:26 38° W 05:39:20 10° NNW visible
27 Apr ? 04:02:32 10° ESE 04:05:54 25° ENE 04:09:18 10° N visible
27 Apr ? 05:37:19 10° SSW 05:41:05 33° W 05:44:53 10° NNW visible
28 Apr ? 04:07:57 10° SE 04:11:29 27° ENE 04:15:01 10° N visible
28 Apr ? 05:43:06 10° SSW 05:46:45 29° W 05:50:24 10° NW visible
29 Apr ? 04:13:24 10° SE 04:17:04 31° ENE 04:20:44 10° N visible
29 Apr ? 05:48:55 10° SSW 05:52:23 26° W 05:55:53 10° NW visible
30 Apr ? 04:18:51 10° SE 04:22:38 35° ENE 04:26:25 10° N visible
01 May ? 04:24:20 10° SE 04:28:11 39° ENE 04:32:04 10° N visible
